Location: Hains Lake
(37.8540°N, 99.8578°W)
Time: 14:01:58
(UTC+00:00)

Transit 2A - Pass Details

Date: 27 April 2021
Orbit: 602 x 957 km, 66.7° (Epoch: 13 May)

Event Time Altitude Azimuth Distance (km) Brightness Sun altitude
Rises 20:59:11 0° 332° (NNW) 2,900 9.0 50.6°
Reaches altitude 10° 21:01:23 10° 332° (NNW) 2,019 8.3 50.2°
Maximum altitude 21:05:55 89° 56° (NE) 672 6.7 49.4°
Drops below altitude 10° 21:10:51 10° 153° (SSE) 2,185 8.5 48.5°
Sets 21:13:18 0° 153° (SSE) 3,160 9.2 48.1°
